Temp
80 83 74 75 75 74 74 74 74 74 75 75 75 75 75 75 75 75 76 76 76 77 77 77 76 76 76 76 75 75 74 74 74 75 76 76 76 76 75 74 76 81 75
82 82 73 74 74 74 74 74 74 74 75 75 75 75 75 75 75 75 75 76 76 77 77 76 76 76 75 75 74 74 73 73 73 73 74 75 75 75 75 74 74 77 74
81 81 79 74 74 74 75 75 75 75 76 75 75 75 75 75 75 75 75 76 76 77 77 76 76 76 75 74 73 73 73 72 72 73 73 83 82 75 74 74 74 74 74
81 81 81 73 74 74 74 74 75 76 75 75 75 75 75 75 75 75 75 75 76 76 77 76 76 75 74 73 72 72 72 72 71 72 82 82 82 75 75 74 74 74 74
81 80 79 72 73 74 74 74 74 74 74 74 74 75 75 75 75 75 74 74 75 76 76 76 75 73 72 71 71 71 71 71 70 75 83 81 83 77 75 74 74 73 73
81 81 74 71 72 74 74 74 74 74 73 73 74 74 75 75 75 74 73 74 75 76 76 75 74 72 71 71 71 70 70 70 72 83 80 79 81 76 75 73 72 72 72
80 78 76 71 72 74 74 74 73 73 72 73 73 73 74 74 74 73 73 73 74 74 74 74 72 71 70 70 70 70 69 70 81 82 83 83 81 75 75 74 73 72 72
78 75 77 73 72 73 73 73 72 72 72 72 72 73 73 73 73 72 72 72 72 72 72 72 71 71 70 70 70 69 69 69 79 81 83 84 76 75 75 74 73 72 72
75 73 76 77 76 71 71 71 70 71 71 71 71 71 72 71 71 72 72 72 72 72 72 71 71 70 70 70 70 69 68 69 83 83 82 85 73 74 76 75 74 73 72
73 73 75 76 77 77 77 70 70 70 70 70 70 70 70 70 70 71 71 71 72 71 71 71 70 70 70 70 69 69 68 69 83 83 85 84 72 75 76 75 74 73 73
71 72 73 75 76 77 78 76 70 70 70 69 71 70 70 79 77 76 74 70 71 71 70 70 70 70 69 69 68 68 68 83 83 84 85 70 72 75 76 76 74 74 73
70 72 74 74 74 75 78 77 77 77 78 78 78 76 78 77 78 78 74 69 70 70 70 70 70 69 71 82 81 72 83 82 83 83 85 69 73 75 76 74 74 74 73
74 74 74 73 74 74 76 77 77 77 77 77 76 76 76 77 76 77 78 78 78 73 79 76 77 79 78 80 81 80 80 81 83 83 76 68 72 74 74 74 74 73 72
74 73 73 74 72 73 77 76 77 76 76 75 77 76 75 75 75 76 77 78 77 79 77 78 79 77 77 77 78 79 79 81 82 82 76 66 69 73 75 73 72 72 71
74 74 73 73 72 72 73 76 76 76 76 76 76 75 76 76 74 76 76 77 78 78 78 77 78 78 77 77 78 78 77 76 77 81 81 65 68 72 74 73 73 72 71
76 75 74 72 72 72 74 74 75 76 77 76 76 76 74 75 74 74 74 75 76 77 78 77 77 77 76 77 76 75 75 76 76 75 79 75 65 68 70 72 73 72 71
78 76 74 73 72 73 74 75 76 76 76 76 76 75 74 74 73 74 73 74 76 76 75 75 76 77 77 75 74 74 75 73 74 74 75 76 73 63 65 67 68 69 71
80 77 76 76 74 73 74 75 76 77 76 76 76 76 73 73 74 73 75 76 78 76 76 76 76 75 74 74 72 74 73 73 71 71 73 73 74 74 66 63 65 66 67
81 79 76 75 74 73 74 75 75 74 74 76 76 76 74 73 74 74 75 76 76 77 75 75 74 73 72 72 72 71 71 72 71 72 70 70 69 72 73 61 61 61 64
80 79 77 76 74 74 74 73 74 74 74 76 75 76 75 74 74 74 76 76 76 76 76 75 72 67 68 70 70 68 68 69 70 70 69 70 69 68 70 68 70 66 60
78 76 77 76 75 74 73 72 73 72 73 74 75 74 74 75 74 74 76 76 75 75 75 73 71 67 63 65 62 65 65 65 65 67 68 69 67 68 67 68 70 71 68
79 76 77 77 77 75 76 76 76 75 76 75 75 74 74 75 75 75 75 76 75 76 73 71 68 66 67 65 66 65 62 63 64 65 66 66 65 68 66 65 65 65 67
76 77 76 78 78 77 76 76 75 76 74 73 73 73 74 74 75 74 75 75 75 75 72 69 68 67 65 63 63 67 58 62 62 62 61 64 63 65 65 65 62 62 62
77 75 78 78 78 78 76 76 73 74 73 74 75 76 75 74 74 74 75 74 74 74 72 68 67 67 65 61 59 61 61 63 62 56 59 60 61 62 61 63 62 60 61
75 74 73 76 77 77 75 75 75 73 76 78 77 75 73 72 73 74 74 74 73 73 71 68 63 60 60 59 62 58 60 62 60 63 57 57 60 62 64 63 62 61 58
73 73 73 75 76 77 75 74 74 73 73 75 75 74 74 71 69 71 73 73 73 71 68 65 61 59 57 58 58 61 62 61 61 60 60 58 59 59 63 61 60 59 59
MSLP
1013.49 1014.10 1015.09 1015.53 1015.77 1015.99 1015.83 1016.12 1016.54 1016.98 1017.20 1017.23 1017.37 1017.73 1018.00 1018.25 1018.47 1018.58 1018.73 1018.89 1018.99 1019.06 1019.20 1019.40 1019.55 1019.63 1019.72 1019.79 1019.87 1019.92 1019.94 1019.93 1019.88 1019.82 1019.77 1019.71 1019.71 1019.75 1019.78 1019.76 1019.50 1019.33 1019.64
1013.20 1014.06 1015.09 1015.58 1015.83 1015.99 1015.90 1016.27 1016.62 1017.01 1017.27 1017.46 1017.62 1017.84 1018.09 1018.42 1018.66 1018.91 1019.01 1019.07 1019.22 1019.36 1019.48 1019.66 1019.86 1019.96 1020.06 1020.13 1020.21 1020.25 1020.29 1020.28 1020.23 1020.19 1020.13 1020.08 1020.14 1020.15 1020.14 1020.11 1019.94 1019.85 1019.87
1013.21 1014.18 1015.09 1015.68 1015.91 1016.08 1016.01 1016.35 1016.74 1017.09 1017.31 1017.47 1017.78 1017.99 1018.26 1018.56 1018.84 1019.01 1019.16 1019.30 1019.35 1019.51 1019.70 1019.87 1020.01 1020.15 1020.25 1020.36 1020.38 1020.40 1020.40 1020.39 1020.35 1020.35 1020.37 1019.87 1019.95 1020.34 1020.39 1020.33 1020.22 1020.09 1020.04
1013.18 1014.23 1014.97 1015.75 1015.98 1016.11 1016.09 1016.45 1016.78 1017.19 1017.42 1017.62 1017.91 1018.12 1018.36 1018.67 1018.95 1019.15 1019.28 1019.36 1019.50 1019.72 1019.90 1020.07 1020.26 1020.40 1020.43 1020.42 1020.48 1020.56 1020.56 1020.50 1020.46 1020.40 1020.00 1020.04 1020.07 1020.53 1020.52 1020.52 1020.45 1020.33 1020.26
1013.56 1014.26 1014.96 1015.58 1015.87 1016.05 1016.23 1016.45 1016.77 1017.25 1017.53 1017.77 1018.03 1018.23 1018.49 1018.74 1019.04 1019.25 1019.39 1019.55 1019.68 1019.83 1020.06 1020.27 1020.42 1020.56 1020.60 1020.59 1020.57 1020.59 1020.59 1020.54 1020.48 1020.31 1020.06 1020.21 1020.05 1020.51 1020.67 1020.71 1020.71 1020.68 1020.58
1013.80 1014.34 1015.11 1015.56 1015.83 1016.06 1016.37 1016.50 1016.85 1017.18 1017.53 1017.75 1017.99 1018.24 1018.47 1018.73 1019.03 1019.36 1019.56 1019.65 1019.80 1019.99 1020.23 1020.44 1020.60 1020.76 1020.77 1020.70 1020.63 1020.62 1020.57 1020.50 1020.32 1019.91 1020.17 1020.37 1020.26 1020.61 1020.72 1020.85 1020.91 1020.88 1020.88
1013.93 1014.51 1015.14 1015.60 1015.77 1016.04 1016.52 1016.66 1016.98 1017.21 1017.47 1017.82 1018.01 1018.20 1018.58 1018.84 1019.03 1019.31 1019.58 1019.74 1019.88 1020.06 1020.27 1020.53 1020.72 1020.78 1020.85 1020.82 1020.79 1020.71 1020.61 1020.47 1019.91 1019.86 1019.89 1019.99 1020.22 1020.58 1020.69 1020.87 1020.96 1020.96 1020.97
1013.83 1014.63 1015.07 1015.63 1015.82 1016.00 1016.39 1016.77 1017.13 1017.39 1017.58 1017.86 1018.05 1018.23 1018.49 1018.81 1019.11 1019.37 1019.63 1019.73 1019.87 1020.04 1020.23 1020.44 1020.60 1020.69 1020.76 1020.75 1020.72 1020.66 1020.56 1020.40 1019.87 1019.74 1019.72 1019.85 1020.40 1020.59 1020.68 1020.80 1020.87 1020.93 1020.94
1014.15 1014.66 1015.04 1015.39 1015.74 1016.14 1016.33 1016.57 1017.02 1017.36 1017.72 1018.05 1018.20 1018.37 1018.56 1018.79 1019.05 1019.38 1019.66 1019.79 1019.86 1020.03 1020.17 1020.32 1020.45 1020.54 1020.59 1020.64 1020.64 1020.55 1020.41 1020.32 1019.60 1019.61 1019.68 1019.74 1020.37 1020.49 1020.50 1020.55 1020.66 1020.75 1020.77
1014.45 1014.60 1014.75 1015.32 1015.64 1015.83 1016.34 1016.74 1016.95 1017.19 1017.60 1018.09 1018.35 1018.60 1018.81 1018.98 1019.03 1019.19 1019.46 1019.64 1019.82 1019.99 1020.17 1020.29 1020.40 1020.51 1020.56 1020.53 1020.46 1020.37 1020.26 1020.17 1019.59 1019.57 1019.60 1019.57 1020.20 1020.38 1020.32 1020.38 1020.42 1020.48 1020.53
1014.43 1014.47 1014.67 1015.01 1015.49 1015.68 1015.86 1016.39 1017.01 1017.26 1017.59 1017.96 1018.27 1018.63 1018.99 1018.93 1019.14 1019.20 1019.16 1019.45 1019.66 1019.83 1020.05 1020.26 1020.44 1020.50 1020.47 1020.41 1020.40 1020.33 1020.20 1019.73 1019.60 1019.54 1019.61 1020.14 1020.23 1020.23 1020.18 1020.17 1020.21 1020.23 1020.32
1013.97 1014.24 1014.49 1014.61 1014.98 1015.61 1015.71 1016.02 1016.36 1016.72 1017.20 1017.57 1017.90 1018.15 1018.42 1018.69 1018.88 1019.05 1019.31 1019.60 1019.62 1019.69 1019.82 1020.06 1020.23 1020.36 1020.31 1019.87 1019.84 1020.12 1019.71 1019.71 1019.57 1019.52 1019.55 1019.99 1020.06 1020.02 1020.06 1020.06 1020.04 1020.07 1020.14
1013.32 1013.93 1014.30 1014.74 1015.09 1015.31 1015.51 1015.90 1016.08 1016.34 1016.67 1016.99 1017.32 1017.70 1018.03 1018.36 1018.62 1018.78 1018.93 1019.25 1019.42 1019.68 1019.44 1019.57 1019.71 1019.70 1019.76 1019.66 1019.65 1019.64 1019.59 1019.60 1019.58 1019.64 1019.86 1019.94 1019.87 1019.89 1019.96 1019.98 1019.95 1020.02 1020.19
1013.08 1013.52 1014.00 1014.37 1014.83 1015.26 1015.42 1015.63 1015.72 1015.98 1016.32 1016.69 1016.92 1017.18 1017.42 1017.83 1018.21 1018.33 1018.43 1018.61 1018.90 1018.96 1019.16 1019.28 1019.18 1019.36 1019.52 1019.56 1019.53 1019.49 1019.55 1019.52 1019.61 1019.78 1019.88 1019.91 1019.83 1019.93 1019.96 1020.13 1020.26 1020.35 1020.48
1012.48 1013.09 1013.63 1014.08 1014.42 1014.62 1014.96 1015.11 1015.37 1015.49 1015.84 1016.14 1016.59 1016.97 1017.10 1017.19 1017.51 1017.77 1018.06 1018.27 1018.39 1018.60 1018.72 1018.92 1018.97 1019.07 1019.23 1019.34 1019.32 1019.30 1019.57 1019.76 1019.77 1019.72 1019.81 1020.19 1020.02 1019.99 1020.10 1020.33 1020.58 1020.67 1020.72
1012.01 1012.34 1013.17 1013.76 1014.07 1014.25 1014.21 1014.41 1014.71 1015.00 1015.28 1015.78 1015.94 1016.21 1016.72 1016.88 1017.16 1017.43 1017.69 1017.97 1018.17 1018.38 1018.52 1018.65 1018.76 1018.78 1018.89 1019.01 1019.32 1019.51 1019.60 1019.70 1019.82 1020.00 1019.99 1020.41 1020.59 1020.45 1020.51 1020.62 1020.78 1020.85 1020.93
1011.24 1012.17 1012.60 1013.05 1013.64 1013.84 1013.95 1013.98 1014.11 1014.49 1014.91 1015.04 1015.38 1015.87 1016.23 1016.47 1016.75 1017.07 1017.32 1017.62 1017.73 1018.00 1018.38 1018.61 1018.69 1018.71 1018.78 1019.07 1019.37 1019.54 1019.66 1019.88 1020.00 1020.13 1020.24 1020.39 1020.76 1020.99 1021.07 1021.14 1021.20 1021.18 1021.06
1010.90 1011.17 1011.93 1012.41 1012.56 1013.02 1013.26 1013.59 1013.86 1013.95 1014.25 1014.52 1014.92 1015.35 1015.71 1016.10 1016.41 1016.75 1016.82 1016.92 1017.10 1017.53 1017.85 1018.16 1018.31 1018.60 1018.92 1019.12 1019.42 1019.62 1019.75 1019.91 1020.11 1020.23 1020.44 1020.53 1020.65 1020.83 1021.41 1021.57 1021.55 1021.50 1021.46
1009.59 1010.30 1011.06 1011.73 1011.89 1012.18 1012.55 1012.80 1013.37 1013.76 1013.96 1014.02 1014.45 1014.64 1015.09 1015.47 1015.76 1016.06 1016.28 1016.49 1016.74 1016.87 1017.13 1017.52 1018.01 1018.37 1018.67 1019.13 1019.51 1019.83 1020.00 1019.98 1020.24 1020.34 1020.59 1020.78 1020.95 1020.99 1021.21 1021.91 1021.87 1021.84 1021.79
1008.82 1009.22 1009.68 1010.14 1010.77 1011.46 1012.01 1012.53 1012.70 1013.12 1013.37 1013.46 1013.53 1013.86 1014.34 1014.64 1014.94 1015.26 1015.39 1015.62 1016.01 1016.34 1016.55 1017.01 1017.65 1018.48 1018.63 1018.81 1019.38 1019.93 1020.26 1020.47 1020.57 1020.69 1020.81 1020.81 1021.00 1021.20 1021.32 1021.54 1021.57 1021.91 1022.09
1008.35 1008.62 1008.56 1009.10 1009.23 1010.32 1010.94 1011.14 1011.55 1011.41 1012.31 1012.62 1012.66 1012.70 1012.87 1013.22 1013.73 1014.22 1014.45 1014.93 1015.20 1015.55 1015.86 1016.41 1017.15 1018.03 1018.85 1019.03 1019.51 1019.92 1020.32 1020.67 1020.74 1020.78 1020.90 1021.00 1021.28 1021.35 1021.46 1021.56 1021.60 1021.63 1021.78
1007.63 1007.63 1007.75 1007.84 1008.43 1009.05 1009.42 1009.93 1010.49 1010.98 1011.14 1011.42 1011.71 1011.76 1012.07 1012.49 1012.83 1013.08 1013.40 1013.81 1014.36 1014.89 1015.40 1015.90 1016.35 1017.37 1018.22 1018.63 1018.59 1019.07 1019.67 1020.45 1020.49 1020.62 1020.75 1020.87 1021.25 1021.26 1021.38 1021.58 1021.72 1021.80 1021.78
1007.56 1007.39 1007.43 1007.22 1007.58 1008.09 1008.88 1009.72 1010.17 1010.48 1010.60 1010.64 1010.39 1010.65 1010.85 1011.41 1011.64 1011.93 1012.11 1012.75 1013.38 1013.97 1014.41 1015.12 1015.63 1016.11 1017.07 1018.23 1018.48 1018.24 1019.06 1018.63 1019.63 1020.55 1020.83 1020.76 1021.00 1021.10 1021.16 1021.28 1021.57 1021.79 1021.95
1007.73 1007.45 1007.11 1007.03 1007.17 1007.46 1007.92 1008.26 1008.66 1008.68 1008.85 1008.35 1009.20 1009.58 1009.91 1010.47 1010.78 1011.04 1011.25 1011.69 1012.11 1013.01 1013.47 1014.12 1014.96 1015.42 1016.13 1016.94 1018.45 1018.32 1018.40 1018.33 1018.52 1019.61 1020.32 1020.59 1020.82 1020.84 1021.07 1021.14 1021.35 1021.55 1021.78
1007.82 1007.59 1007.16 1006.93 1006.75 1006.86 1007.08 1007.19 1007.47 1007.69 1007.20 1007.34 1007.93 1008.14 1008.51 1008.94 1009.52 1009.93 1010.40 1010.80 1011.17 1011.66 1012.43 1013.10 1014.07 1015.09 1015.55 1016.40 1017.09 1017.76 1018.24 1018.40 1018.58 1018.36 1019.06 1019.98 1020.58 1020.66 1020.92 1021.10 1021.21 1021.14 1021.59
1008.32 1007.76 1007.25 1006.77 1006.43 1006.35 1006.54 1006.67 1006.48 1006.35 1006.26 1006.48 1006.41 1006.62 1007.02 1007.70 1008.23 1008.50 1008.84 1009.51 1010.14 1010.90 1011.41 1012.18 1013.15 1014.04 1014.77 1015.38 1016.54 1017.02 1016.54 1017.16 1017.61 1018.03 1018.56 1019.47 1019.72 1020.46 1020.80 1021.07 1021.38 1021.32 1021.75
Wind_Speed
12 17 16 15 13 14 18 17 16 15 15 16 16 15 14 14 14 14 14 14 14 16 17 16 15 15 15 14 14 13 13 12 11 10 11 11 12 12 12 11 7 11 11
15 18 16 15 15 15 18 17 16 15 15 16 16 15 15 14 14 13 13 14 14 16 16 15 14 14 13 13 12 11 9 8 6 7 7 9 10 11 11 11 9 11 11
19 17 18 14 16 16 19 18 16 15 16 17 16 15 14 14 13 13 13 12 13 15 14 13 13 12 12 11 10 9 7 5 4 4 4 7 9 8 8 8 9 11 10
20 17 17 13 15 16 18 18 17 16 15 15 15 14 14 14 13 13 12 12 12 13 13 12 12 11 9 9 8 8 7 7 4 4 5 6 7 7 6 6 7 9 9
18 17 16 14 15 16 17 17 17 16 14 14 13 14 14 14 14 13 11 10 11 12 11 11 11 10 8 7 6 6 6 6 5 4 6 5 5 6 5 5 5 6 6
17 17 15 14 15 16 16 17 16 16 14 14 13 13 14 15 14 12 9 9 10 11 10 10 10 8 7 6 5 5 5 5 1 6 6 6 4 5 4 4 3 4 4
16 14 17 13 15 17 16 16 15 15 14 13 12 13 12 12 13 12 10 9 10 10 10 9 9 8 6 5 4 4 5 4 4 4 6 6 5 4 4 3 2 2 2
16 14 16 15 14 16 16 14 14 13 13 12 12 12 12 12 11 11 10 10 9 9 9 9 8 7 7 6 5 4 3 2 3 5 7 6 5 4 3 3 3 2 1
13 13 14 15 15 12 13 14 13 13 12 11 11 11 11 11 11 10 9 9 9 8 8 7 7 7 6 6 4 3 1 2 4 4 6 5 7 6 6 5 4 1 1
12 13 15 14 14 15 13 11 13 13 12 11 10 9 9 9 10 11 10 9 8 7 7 6 6 5 4 4 4 2 1 2 5 5 3 4 7 8 7 6 4 3 3
11 13 14 14 13 13 14 13 11 11 11 11 10 9 8 8 9 11 8 10 9 8 7 6 5 3 2 2 1 2 3 2 3 3 2 3 6 7 5 1 1 1 1
15 16 14 14 15 13 11 13 13 12 11 11 10 12 9 9 8 7 7 8 8 9 8 7 6 4 4 3 3 4 2 2 2 3 2 3 7 5 2 3 3 3 2
15 13 15 14 13 13 11 9 7 7 8 9 13 11 10 8 7 7 5 6 6 8 5 7 6 5 5 3 2 2 3 3 2 2 3 1 5 4 1 3 3 6 8
16 16 16 16 13 14 9 9 9 8 8 8 10 13 10 7 8 7 6 7 7 6 6 6 5 5 5 5 4 4 4 3 3 2 4 2 4 4 7 9 11 11 10
17 17 17 16 15 14 14 11 10 10 9 10 10 11 10 9 9 8 7 7 7 6 6 6 6 5 5 5 5 5 4 5 5 3 3 5 5 7 11 11 11 10 10
16 18 17 18 16 15 15 15 11 10 11 11 11 11 14 9 8 8 8 8 7 7 6 5 5 5 5 5 5 5 5 5 5 5 4 6 9 10 11 11 11 9 9
15 15 18 19 17 17 18 14 12 11 11 11 11 13 14 13 11 10 8 8 8 7 8 6 6 5 5 5 5 5 5 5 5 6 5 6 8 11 12 12 10 8 7
15 18 17 16 18 19 16 13 11 12 12 11 11 10 15 14 13 11 9 9 9 7 7 7 7 6 5 6 5 4 4 5 6 7 6 6 5 6 9 10 11 11 9
18 18 17 17 19 19 17 13 13 13 12 11 11 11 14 15 15 12 10 9 10 8 8 8 8 8 7 6 5 4 3 4 5 5 7 7 7 5 5 9 11 10 9
16 18 17 17 18 17 12 11 11 11 12 12 12 12 15 13 16 14 12 12 11 9 9 9 9 6 4 7 6 4 3 3 3 4 6 6 7 6 5 5 3 6 7
14 17 20 19 18 14 13 13 13 14 12 13 13 16 17 16 17 15 13 13 11 12 12 12 8 10 4 7 6 4 3 3 4 4 5 5 5 5 5 4 2 2 4
14 17 18 20 19 17 13 12 11 10 11 12 12 15 17 17 16 16 15 14 15 12 13 12 12 7 4 9 5 3 5 5 5 5 5 5 5 4 5 4 4 3 2
11 13 15 18 18 17 17 11 10 9 10 11 14 13 15 18 18 18 17 14 14 13 11 13 14 15 8 8 5 3 4 5 5 5 6 5 5 4 4 4 5 5 3
13 10 11 14 16 15 17 15 19 14 15 14 13 12 13 18 19 18 18 17 16 12 13 12 11 11 8 8 5 5 1 2 4 5 5 7 5 5 5 4 5 5 3
13 12 9 9 13 14 16 18 15 17 15 12 12 16 17 15 19 19 18 18 16 13 14 14 13 10 8 6 7 5 4 2 1 2 4 6 5 5 4 2 4 4 4
12 12 12 12 9 13 16 18 21 21 19 14 16 14 13 12 12 20 20 18 16 15 15 13 12 14 11 7 6 6 7 5 6 4 3 4 4 4 2 3 3 3 2
Wind_Direction
167 159 157 162 161 149 127 122 119 119 120 121 118 115 114 113 112 111 110 108 107 106 104 101 98 96 92 87 83 81 77 70 61 62 68 69 74 79 80 77 79 77 70
146 157 155 162 157 148 131 127 126 127 126 123 119 119 118 118 115 114 114 112 109 108 107 104 100 93 88 82 76 70 64 58 55 68 69 87 73 72 72 75 58 75 71
147 155 161 160 155 149 135 133 132 133 131 127 125 123 123 121 120 119 115 111 112 111 107 105 100 93 89 82 76 69 61 56 71 89 83 77 76 73 71 69 74 76 74
147 154 163 160 157 150 139 139 137 140 136 133 133 129 127 125 123 120 116 117 117 116 113 107 100 96 91 86 74 58 46 47 48 155 128 83 85 81 76 80 68 72 75
151 156 162 162 159 151 146 144 143 142 141 139 139 136 133 131 129 129 123 122 120 121 115 108 104 99 91 80 74 66 57 53 58 184 123 102 83 97 86 76 98 87 50
155 161 159 161 159 153 155 148 147 146 147 146 146 144 142 140 137 135 128 124 123 121 117 115 110 104 97 91 75 54 49 53 282 109 143 128 109 106 115 117 107 94 89
159 162 173 165 161 156 160 153 152 153 151 153 150 146 147 146 144 143 140 134 130 132 132 127 120 115 111 101 80 55 44 49 58 97 154 149 136 164 135 125 127 129 113
160 167 173 169 164 160 160 157 157 159 158 158 154 152 152 154 151 148 150 147 145 143 142 138 134 130 128 124 116 96 64 34 106 102 158 157 132 181 162 154 166 173 186
160 167 173 177 172 163 161 159 163 165 163 165 161 158 156 157 155 157 161 159 154 155 155 154 150 147 146 138 137 147 133 103 89 114 156 162 173 202 195 194 190 180 259
169 173 172 178 180 176 175 167 169 168 167 171 169 165 166 165 163 165 170 173 169 169 169 169 167 163 160 152 168 171 123 155 91 105 141 169 195 214 218 208 185 206 236
179 180 179 179 184 182 178 177 178 174 172 171 173 173 171 184 182 176 178 172 180 183 186 188 192 190 186 187 102 40 188 102 106 95 107 136 215 244 284 250 208 200 201
188 188 187 185 183 188 185 182 185 182 187 189 189 184 190 187 190 196 193 198 193 191 192 197 198 199 224 181 145 160 130 118 136 108 98 205 207 225 317 346 275 222 197
185 187 191 192 194 191 192 189 190 188 187 190 192 191 191 187 188 194 195 198 204 200 202 195 189 201 191 202 173 165 145 148 140 129 91 135 188 200 356 14 67 106 105
193 193 192 194 192 199 198 198 195 195 194 196 201 194 188 191 192 196 200 196 199 199 200 204 194 190 197 194 195 178 154 151 148 132 101 110 160 157 126 101 99 102 108
202 198 197 195 198 197 200 200 203 203 200 202 202 203 201 198 196 193 202 202 202 195 199 201 200 196 201 200 186 178 148 139 143 129 102 50 108 126 116 111 103 101 108
210 205 198 202 203 202 204 201 203 203 203 206 205 205 205 206 203 201 200 206 208 208 207 204 205 202 201 191 177 163 157 158 154 131 119 95 58 78 85 96 92 90 111
217 209 208 202 204 210 212 208 205 208 210 210 211 208 207 206 207 206 205 209 213 208 206 204 206 203 183 171 166 162 160 144 136 129 125 129 111 71 76 76 76 69 64
226 217 208 209 206 210 212 211 215 213 214 217 214 212 209 210 213 212 211 214 214 206 205 205 199 188 186 179 165 163 152 151 141 138 134 134 128 125 93 66 69 64 55
224 219 217 212 214 212 212 211 217 220 221 218 217 216 213 211 212 214 217 219 215 211 203 201 197 198 179 175 164 153 149 150 154 143 134 127 115 111 106 78 71 57 56
226 219 212 206 211 211 208 213 213 220 222 221 220 220 214 215 212 213 218 220 215 216 208 200 194 175 193 167 151 132 119 119 147 149 138 126 115 109 101 88 101 90 55
229 217 216 213 208 196 203 205 212 216 216 224 223 218 217 214 210 210 218 218 215 215 211 199 181 176 163 157 133 140 134 136 167 159 154 144 128 121 115 105 87 65 102
246 227 221 219 210 209 209 214 220 216 227 224 220 223 219 217 212 213 212 214 212 215 212 192 179 164 176 181 166 145 181 182 196 188 175 166 149 146 129 101 89 86 88
291 260 234 228 220 212 213 212 216 227 227 222 222 224 221 217 215 213 211 209 210 210 204 195 187 178 176 188 217 179 161 216 159 176 195 180 161 155 138 129 116 116 95
344 322 277 245 231 220 205 208 213 218 224 225 225 223 218 217 221 218 214 208 204 206 208 193 186 190 171 175 200 223 319 126 181 167 197 195 176 170 160 160 146 128 99
348 342 326 294 243 224 211 213 216 223 231 228 224 226 215 212 214 216 214 207 206 202 202 189 175 187 188 169 205 174 194 182 195 165 164 179 206 204 190 166 159 125 83
342 336 332 327 301 242 221 218 223 228 229 228 225 223 220 213 209 211 211 208 206 204 196 186 184 189 187 161 180 219 174 176 189 174 154 158 186 149 210 165 171 119 76